• Join FlightAware (Why Join?)
  • Login
  • US Flag 
08:13AM EDT


 

Airport Tracker/Info


-or-


 

Live Flight TrackerFlight Track Log ✈ AWI3574 ✈ 12-Mar-2012 ✈ KCHS - KLGA

Flight Track Log - Related Links

Times and Time Zones

All times are in EDT time to prevent confusion due to time zone crossing. See the AWI3574 flight status page for this flight to view local times or setup timezone preferences in your user account.

Time Position Orientation Groundspeed Altitude Reporting Facility
EDT Latitude Longitude Course Direction KTS MPH feet Rate Location/Type
06:58AM 32.9282 -80.0284 354° North  Level FlightAware Approximate
06:59AM 33.0263 -79.9868 233° Southwest  Level FlightAware Approximate
07:00AM 32.9944 -80.0369 20° North 200 230 3,400  Level Jacksonville Center
07:01AM 33.0606 -80.0075 19° North 221 254 5,300 2,100 Climbing Jacksonville Center
07:02AM 33.1247 -79.9808 19° North 251 289 7,600 1,980 Climbing Jacksonville Center
07:03AM 33.2031 -79.9483 14° North 271 312 9,300 1,740 Climbing Jacksonville Center
07:04AM 33.2797 -79.9258 14° North 283 326 11,100 1,800 Climbing Jacksonville Center
07:05AM 33.3647 -79.9008 13° North 294 338 12,900 1,800 Climbing Jacksonville Center
07:06AM 33.4581 -79.8753 13° North 318 366 14,700 1,800 Climbing Jacksonville Center
07:07AM 33.5494 -79.8497 14° North 329 379 16,500 1,560 Climbing Jacksonville Center
07:08AM 33.6425 -79.8214 13° North 335 386 17,900 1,140 Climbing Jacksonville Center
07:09AM 33.7419 -79.7931 12° North 347 399 18,800 1,140 Climbing Jacksonville Center
07:10AM 33.8436 -79.7669 13° North 358 412 20,200 1,320 Climbing Jacksonville Center
07:11AM 33.9431 -79.7383 13° North 358 412 21,500 1,080 Climbing Jacksonville Center
07:12AM 34.0444 -79.7097 11° North 363 418 22,400 1,020 Climbing Jacksonville Center
07:14AM 34.2989 -79.6519 North 366 421 25,100 960 Climbing Washington Center
07:15AM 34.3953 -79.6439 North 376 433 25,700 600 Climbing Washington Center
07:16AM 34.5039 -79.6392 North 381 438 26,400 600 Climbing Washington Center
07:17AM 34.6150 -79.6222 33° Northeast 396 456 27,000 660 Climbing Washington Center
07:18AM 34.7114 -79.5458 33° Northeast 398 458 27,800 660 Climbing Washington Center
07:19AM 34.8058 -79.4697 35° Northeast 406 467 28,400 540 Climbing Washington Center
07:20AM 34.9086 -79.3833 34° Northeast 412 474 28,900 540 Climbing Washington Center
07:21AM 35.0072 -79.3017 34° Northeast 412 474 29,500 420 Climbing Washington Center
07:22AM 35.1036 -79.2225 35° Northeast 412 474 29,800 480 Climbing Washington Center
07:23AM 35.2000 -79.1403 34° Northeast 412 474 30,500 540 Climbing Washington Center
07:24AM 35.2961 -79.0606 34° Northeast 419 482 31,000 240 Climbing Washington Center
07:25AM 35.3967 -78.9783 35° Northeast 423 487 31,000  Level Washington Center
07:26AM 35.4950 -78.8933 33° Northeast 428 493 31,000  Level Washington Center
07:27AM 35.5825 -78.8228 35° Northeast 428 493 31,000  Level Washington Center
07:28AM 35.6806 -78.7397 36° Northeast 428 493 31,000  Level Washington Center
07:29AM 35.7747 -78.6564 36° Northeast 423 487 31,000  Level Washington Center
07:30AM 35.8750 -78.5681 35° Northeast 416 479 31,000  Level Washington Center
07:31AM 35.9667 -78.4894 35° Northeast 411 473 31,000  Level Washington Center
07:32AM 36.0603 -78.4081 35° Northeast 411 473 31,000  Level Washington Center
07:33AM 36.1478 -78.3314 35° Northeast 406 467 31,000  Level Washington Center
07:34AM 36.2392 -78.2522 36° Northeast 399 459 31,000  Level Washington Center
07:35AM 36.3328 -78.1678 36° Northeast 404 465 31,000  Level Washington Center
07:36AM 36.4244 -78.0856 35° Northeast 404 465 31,000  Level Washington Center
07:37AM 36.5200 -78.0008 34° Northeast 404 465 31,000  Level Washington Center
07:38AM 36.6197 -77.9158 36° Northeast 415 478 31,000  Level Washington Center
07:39AM 36.7108 -77.8331 35° Northeast 433 498 31,000  Level Washington Center
07:40AM 36.8086 -77.7478 36° Northeast 433 498 31,000  Level Washington Center
07:41AM 36.9103 -77.6569 35° Northeast 433 498 31,000  Level Washington Center
07:42AM 37.0119 -77.5686 36° Northeast 433 498 31,000  Level Washington Center
07:43AM 37.1114 -77.4775 36° Northeast 433 498 31,000  Level Washington Center
07:44AM 37.2128 -77.3861 35° Northeast 433 498 31,000  Level Washington Center
07:45AM 37.3144 -77.2969 35° Northeast 433 498 31,000  Level Washington Center
07:46AM 37.4178 -77.2053 36° Northeast 438 504 31,000  Level Washington Center
07:47AM 37.5297 -77.1028 36° Northeast 448 516 31,000  Level Washington Center
07:48AM 37.6331 -77.0078 37° Northeast 448 516 31,000  Level Washington Center
07:49AM 37.7281 -76.9178 36° Northeast 443 510 31,000  Level Washington Center
07:50AM 37.8292 -76.8247 36° Northeast 443 510 31,000  Level Washington Center
07:51AM 37.9281 -76.7344 37° Northeast 443 510 31,000  Level Washington Center
07:52AM 38.0289 -76.6383 35° Northeast 443 510 31,000  Level Washington Center
07:53AM 38.1297 -76.5472 36° Northeast 443 510 31,000 -60 Level Washington Center
07:54AM 38.2283 -76.4561 35° Northeast 443 510 30,900 -420 Descending Washington Center
07:55AM 38.3333 -76.3619 36° Northeast 443 510 30,200 -780 Descending Washington Center
07:56AM 38.4381 -76.2650 36° Northeast 454 522 29,400 -720 Descending Washington Center
07:57AM 38.5450 -76.1650 36° Northeast 465 535 28,900 -600 Descending Washington Center
07:58AM 38.6497 -76.0675 36° Northeast 465 535 28,300 -600 Descending Washington Center
07:59AM 38.7542 -75.9697 35° Northeast 465 535 27,800 -540 Descending Washington Center
08:00AM 38.8589 -75.8742 36° Northeast 465 535 27,300 -420 Descending Washington Center
08:01AM 38.9631 -75.7758 37° Northeast 460 529 27,000 -180 Descending Washington Center
08:02AM 39.0656 -75.6772 36° Northeast 460 529 27,000  Level Washington Center
08:03AM 39.1675 -75.5808 35° Northeast 460 529 27,000 -960 Level Washington Center
08:04AM 39.2717 -75.4869 36° Northeast 454 522 25,200 -1,800 Descending Washington Center
08:05AM 39.3675 -75.3983 34° Northeast 443 510 23,400 -1,800 Descending Washington Center
08:06AM 39.4653 -75.3119 35° Northeast 430 495 21,700 -1,260 Descending Washington Center
08:07AM 39.5608 -75.2256 36° Northeast 420 483 21,000 -1,140 Descending Washington Center
08:08AM 39.6544 -75.1386 34° Northeast 415 478 19,400 -1,500 Descending Washington Center
08:09AM 39.7478 -75.0572 35° Northeast 410 472 18,000 -1,680 Descending Washington Center
08:10AM 39.8308 -74.9808 42° Northeast 400 460 16,200 -1,980 Descending Washington Center
08:12AM 39.9833 -74.8000 43° Northeast 397 457 12,700 -1,980 Descending New York TRACON
08:13AM 40.0667 -74.7000 49° Northeast 379 436 10,900 -1,380 Descending New York TRACON
08:14AM 40.1333 -74.6000 49° Northeast 364 419 10,000 -480 Descending New York TRACON
08:15AM 40.2000 -74.5000 45° Northeast 362 417 10,000  Level New York TRACON
08:16AM 40.2500 -74.4333 42° Northeast 358 412 10,000  Level New York TRACON
08:17AM 40.3333 -74.3333 44° Northeast 355 409 10,000 -420 Level New York TRACON
08:18AM 40.4000 -74.2500 45° Northeast 287 330 9,200 -1,380 Descending New York TRACON
08:19AM 40.4500 -74.1833 45° Northeast 284 327 7,400 -1,440 Descending New York TRACON
08:20AM 40.5000 -74.1167 30° Northeast 289 333 6,600 -1,380 Descending New York TRACON
08:21AM 40.5667 -74.0667 37° Northeast 278 320 4,800 -1,320 Descending New York TRACON
08:22AM 40.6167 -74.0167 37° Northeast 275 316 4,000 -360 Descending New York TRACON
08:23AM 40.6833 -73.9500 52° Northeast 271 312 4,100  Climbing New York TRACON
08:24AM 40.7333 -73.8667 62° Northeast 270 311 4,000 -60 Descending New York TRACON
08:25AM 40.7667 -73.7833 52° Northeast 269 310 4,000  Level New York TRACON
08:26AM 40.8167 -73.7000 346° North 267 307 4,000 -780 Level New York TRACON
08:27AM 40.8667 -73.7167 270° West 257 296 2,500 -1,080 Descending New York TRACON
08:28AM 40.8667 -73.8000 217° Southwest 213 245 1,900 -600 Descending New York TRACON
08:29AM 40.8333 -73.8333 217° Southwest 149 171 1,300 -720 Descending New York TRACON